Powrót do katalogu

STARLINK-11400

AktywnyŁącznośćVLEO
NORAD 63017·PAYLOAD·🇺🇸 United States

Wystrzelony Feb 15, 2025 z Cape Canaveral Space Force Station

Loading…

Następne Przeloty (najbliższe 24 godziny)

TLE

ŚwieżeSource: CelesTrak SupGP

Epoka: Sep 14, 2026, 22:40 UTC

1 63017C 25032N   26257.94493056 -.00033845  00000+0 -26300-3 0  2576
2 63017  43.0000 134.8030 0001632 266.7203 183.7741 15.70844099    12

Śledź STARLINK-11400 w czasie rzeczywistym z AllMySat

Download on the App Store